Wind_Speed
65 65 66 67 68 69 70 72 73 74 75 76 78 79 80 82 83 85 87 89 90 91 92 92 92 93 94 94 94 95 96 97 98 99 101 104 106 108 109 111 111 112 112 113 113 114 114 115 117 118 119 120 120 121 122 123 124 125 125 126 127 127 127 126 124 121 119 118 117 115 113 110 109 108 107 105 104 103 102 101 98 95 92 89 87
65 66 68 69 70 71 72 74 75 76 77 79 80 81 83 84 86 88 89 91 92 92 92 92 92 93 93 93 94 95 96 97 99 100 103 105 107 109 110 111 112 112 112 113 114 114 115 116 118 119 120 120 121 122 123 124 124 125 126 127 128 128 128 126 124 121 116 114 113 111 109 107 105 104 103 102 100 99 98 98 96 93 91 88 85
67 68 69 70 71 73 74 76 77 79 80 81 82 84 85 87 89 90 91 92 93 93 92 92 92 92 92 93 94 96 97 99 100 102 104 106 108 109 110 112 112 113 113 114 114 115 116 118 119 120 120 121 122 123 123 124 125 126 127 128 128 128 127 126 123 119 114 111 109 107 106 104 102 100 98 97 97 96 95 94 94 92 90 86 83
69 70 71 72 73 75 76 78 79 81 82 83 84 86 88 89 91 92 92 93 93 92 91 91 92 92 93 94 96 97 99 101 103 104 106 107 109 110 112 113 113 114 114 115 116 117 118 119 120 121 122 122 123 124 124 125 126 127 127 128 128 127 126 124 121 117 112 108 106 104 102 100 97 95 93 92 92 93 92 91 91 91 89 86 82
71 72 72 74 75 76 78 79 81 82 84 85 87 88 89 90 91 92 92 93 92 91 91 92 93 94 95 96 98 99 101 103 105 106 107 108 110 112 113 114 114 115 115 116 117 119 120 121 122 122 123 124 124 125 125 126 126 127 127 127 127 125 123 121 117 114 110 107 104 102 99 96 93 90 88 88 87 88 89 90 90 89 88 86 83
72 73 74 75 77 78 79 81 82 84 86 87 88 89 90 90 91 91 92 92 91 91 93 94 95 96 97 98 100 102 104 105 106 108 108 110 112 113 114 115 115 115 116 118 119 120 122 122 123 123 124 125 125 126 126 127 127 127 127 126 125 122 120 117 114 111 108 105 103 99 96 92 89 86 85 85 84 83 84 85 88 88 86 84 82
74 75 76 77 78 80 81 83 84 86 87 88 89 89 89 89 90 90 91 92 92 93 95 96 97 97 99 100 102 104 105 106 108 109 110 111 113 114 115 116 116 117 118 119 121 122 123 124 124 125 125 126 126 127 127 127 127 126 125 124 122 119 117 114 112 109 107 104 101 97 93 89 86 84 82 82 81 81 80 80 82 85 85 83 80
77 77 78 79 80 82 83 84 85 86 87 88 89 89 89 90 90 91 92 93 94 95 97 97 98 99 100 102 104 105 106 108 109 110 111 113 115 115 116 117 118 119 120 121 122 123 125 125 125 126 126 127 127 127 127 127 126 125 123 121 119 116 114 112 110 108 105 102 98 95 91 87 85 82 81 79 78 78 78 77 77 79 81 82 80
79 79 80 81 82 83 84 85 85 87 88 89 90 90 91 92 93 93 94 95 96 97 98 98 99 101 102 104 105 107 108 110 111 112 113 115 116 116 117 119 120 121 122 123 124 125 126 127 127 127 127 127 128 128 127 126 125 123 121 118 116 114 112 110 108 106 102 99 96 92 89 86 83 81 79 78 76 74 75 76 75 76 76 77 78
80 81 82 83 84 84 85 86 87 89 89 91 92 93 94 94 94 94 95 96 97 98 99 99 101 103 104 106 107 109 111 112 113 114 115 116 117 118 120 121 123 124 125 126 127 128 128 128 128 128 128 128 128 128 126 125 123 120 118 116 114 113 111 109 106 103 100 97 95 91 88 85 82 79 76 74 73 72 72 73 73 74 73 73 74
83 83 84 85 86 86 88 89 90 91 92 93 94 95 95 95 95 96 97 98 99 99 100 101 103 105 107 109 110 111 113 114 115 116 117 118 119 120 122 124 125 126 127 128 129 130 130 130 129 129 129 129 129 127 125 123 121 118 116 115 113 111 109 107 104 100 97 95 93 90 86 83 80 76 73 71 70 69 70 71 71 71 71 70 70
85 86 87 87 88 89 91 92 93 93 94 95 95 95 95 95 96 97 99 100 100 101 102 104 106 108 110 111 112 114 115 117 118 118 119 120 121 123 124 126 128 129 130 131 131 132 132 131 130 130 130 130 128 126 124 121 119 117 115 114 112 110 107 105 101 97 95 93 91 88 85 82 78 74 70 68 66 66 67 68 69 68 68 68 67
88 88 89 90 90 91 93 94 94 95 95 95 96 95 96 96 98 99 100 101 102 102 104 106 109 111 112 114 115 116 118 119 120 120 121 123 124 125 126 128 130 132 133 133 133 133 133 132 132 132 131 130 127 124 122 120 118 116 115 113 111 108 106 103 99 96 94 92 89 86 83 80 76 72 69 66 63 63 63 65 65 65 66 67 66
89 90 90 91 92 93 95 95 95 95 95 96 96 96 97 98 99 100 101 102 104 105 107 109 112 114 115 117 118 119 121 121 122 123 124 125 126 127 129 131 133 134 135 135 135 135 134 134 134 134 132 129 125 122 120 118 117 116 115 113 110 107 104 101 97 95 93 90 86 83 80 78 74 71 67 64 62 61 61 61 61 61 63 66 65
90 91 91 92 93 94 95 94 94 94 95 95 96 97 98 99 101 102 103 105 107 109 110 112 115 117 118 120 121 122 123 124 124 125 127 127 128 130 132 134 135 137 137 138 137 136 136 135 135 134 131 127 123 120 119 118 116 116 115 112 109 106 103 99 96 94 92 88 84 82 79 76 73 70 67 64 62 61 61 60 58 58 59 63 65
90 91 91 92 92 93 93 92 93 94 95 96 97 99 100 102 103 104 106 108 110 112 114 116 118 120 121 123 124 125 126 127 128 128 129 131 132 133 135 136 138 139 140 140 138 137 137 136 135 132 129 125 122 120 118 117 116 116 114 111 108 104 101 97 95 93 90 86 83 80 78 75 72 69 67 64 61 59 60 60 58 55 56 59 63
90 90 91 91 91 91 92 93 94 96 97 99 100 102 103 105 106 108 110 112 113 115 117 119 121 123 124 125 126 128 129 130 131 132 133 134 135 136 137 139 140 141 142 140 139 138 137 136 133 130 126 123 121 120 118 117 117 115 113 110 106 102 99 95 93 91 88 85 82 80 77 74 71 69 66 63 60 57 57 58 57 55 54 55 59
89 90 90 91 92 93 95 96 98 99 101 102 104 105 107 108 110 112 114 116 117 119 121 123 125 126 127 128 130 131 133 134 135 136 137 138 139 139 140 141 142 142 142 140 139 138 137 135 131 127 124 122 121 120 119 118 116 114 111 108 104 100 97 94 91 89 87 84 82 80 77 74 71 68 66 63 60 57 56 56 56 54 53 53 55
92 92 93 95 96 98 99 100 102 103 105 106 107 109 111 113 115 116 118 120 122 123 125 127 128 129 131 132 133 135 136 138 139 140 141 141 142 142 143 143 143 142 141 140 139 138 135 132 128 125 122 121 120 120 119 118 116 113 110 106 102 98 95 92 90 87 85 84 82 80 77 74 71 68 66 64 61 58 56 55 55 53 53 52 52
95 97 98 100 101 102 104 105 106 108 109 111 112 114 115 117 119 121 123 124 126 127 129 130 131 133 134 136 137 138 140 142 143 143 144 144 144 144 144 144 143 142 140 139 138 135 132 129 126 124 122 121 120 120 119 117 115 112 108 104 100 97 94 91 88 86 84 83 82 80 77 74 71 69 67 64 62 59 57 56 55 53 52 52 51
100 101 103 104 106 107 108 109 111 112 114 115 117 118 120 122 123 125 127 128 129 131 132 133 135 136 137 139 140 142 143 144 145 146 146 147 146 146 144 143 142 140 139 137 135 132 129 127 125 124 122 121 121 120 119 116 114 110 107 102 99 95 93 90 88 85 83 82 81 80 77 74 71 69 67 65 63 60 58 57 55 54 52 51 51
104 106 107 109 110 111 113 114 116 117 119 120 121 123 124 126 127 129 130 132 133 134 135 137 138 139 140 141 143 144 146 147 147 148 148 148 147 145 144 142 140 139 136 134 131 129 127 126 124 123 122 121 121 119 117 115 112 108 104 100 96 93 91 89 86 84 82 81 80 79 76 73 71 69 67 65 63 61 59 58 56 55 53 51 50
108 110 111 112 114 115 116 118 119 121 122 124 125 127 128 130 131 133 134 135 136 137 138 140 141 141 143 144 145 147 148 148 148 148 148 148 147 145 143 141 138 136 132 130 128 127 126 125 124 123 122 121 120 118 116 114 110 106 103 98 94 91 90 88 85 83 81 80 78 77 75 72 70 69 67 65 63 61 60 59 58 56 54 53 50
112 113 115 116 117 118 120 121 123 124 126 127 129 130 132 133 134 136 137 138 139 140 141 142 143 144 145 146 147 148 148 148 147 147 147 147 146 144 141 139 135 132 128 126 126 126 126 125 123 122 121 120 118 117 115 112 109 105 101 96 92 90 89 88 85 83 80 78 77 76 74 71 69 68 67 64 63 61 60 60 59 57 55 55 53
116 117 118 120 121 122 123 125 126 127 129 130 132 133 135 136 137 138 139 140 141 142 143 144 145 146 146 147 148 148 147 147 146 147 147 146 144 142 139 135 132 128 126 125 125 125 125 124 123 122 120 118 116 115 114 111 108 104 100 95 91 90 89 87 84 82 80 78 76 75 73 70 69 67 66 64 62 61 61 61 60 58 56 57 56
120 121 123 124 125 126 127 128 130 131 132 134 135 136 138 139 140 141 142 142 143 144 145 146 147 147 147 147 147 146 146 145 145 146 145 143 141 138 135 132 129 127 126 125 124 124 124 123 122 120 119 117 115 113 112 110 108 104 99 94 90 89 87 85 83 81 79 77 75 74 71 70 68 67 65 64 62 60 60 61 61 60 58 58 58
124 125 127 127 129 130 131 132 133 134 136 137 138 139 140 141 142 143 143 144 145 146 146 147 147 147 146 146 145 145 144 144 144 143 141 139 136 134 132 130 129 128 127 125 124 123 121 120 119 118 117 115 113 111 109 107 105 102 98 93 91 89 87 85 83 81 79 76 74 72 70 69 68 67 65 64 62 60 59 60 61 61 60 59 59
128 129 130 131 132 133 134 135 137 138 139 140 141 142 142 143 144 144 145 145 146 146 146 146 146 146 145 144 144 143 142 142 141 139 136 133 132 130 130 129 129 128 127 126 124 121 119 117 116 115 114 113 110 108 106 104 102 99 96 93 90 88 86 84 82 79 77 75 73 71 69 68 68 67 66 64 63 60 59 59 60 60 60 60 60
131 132 133 135 136 137 138 139 140 141 142 142 143 143 144 144 144 144 145 145 145 145 145 145 145 144 143 142 141 140 139 138 136 133 131 130 129 129 129 129 128 128 127 125 123 119 117 115 114 113 111 109 107 105 102 100 98 95 93 90 88 86 84 83 80 78 76 74 72 70 69 68 68 67 66 65 64 62 60 59 59 60 60 60 60
135 136 137 138 139 139 140 141 142 142 143 143 143 144 144 144 144 144 144 144 144 144 143 143 142 141 140 139 138 136 135 133 131 129 128 128 128 128 128 128 128 127 126 123 120 117 115 114 112 110 109 107 104 102 99 97 94 92 90 87 85 84 83 81 78 76 74 73 71 69 68 68 67 66 65 64 64 63 61 59 59 60 61 60 61
138 139 140 140 141 141 141 142 142 142 142 143 143 143 143 143 143 143 143 143 142 141 141 140 139 137 136 135 133 132 130 129 128 128 127 127 127 127 127 127 126 125 123 121 118 116 114 112 110 107 105 103 101 99 96 94 92 90 88 85 84 82 81 78 76 73 72 71 69 68 68 67 66 65 64 63 63 63 62 60 59 59 60 61 61
140 140 141 141 141 141 142 142 142 142 142 142 142 142 142 142 141 141 140 139 138 137 136 135 134 133 132 130 129 128 127 127 127 127 127 127 126 126 125 124 123 121 119 117 115 114 112 110 107 104 102 100 98 96 94 92 90 88 86 84 82 80 78 76 74 72 70 69 68 68 68 67 66 65 63 62 63 63 62 61 60 59 60 60 60
141 141 141 141 141 141 141 141 141 141 140 140 140 139 139 138 137 136 135 134 133 133 132 131 130 129 128 127 126 126 126 126 127 127 127 126 126 124 122 121 119 118 116 115 113 111 109 107 104 101 99 97 96 94 92 91 89 87 85 83 81 80 77 75 73 71 70 69 68 68 68 67 66 65 64 63 63 63 62 61 60 60 60 60 60
140 140 140 140 140 140 139 139 138 137 137 136 135 135 134 134 133 132 131 130 130 129 128 127 127 126 126 126 126 126 126 126 126 126 126 125 124 122 120 117 116 115 114 112 110 107 105 102 100 98 96 94 93 92 91 89 86 85 83 81 80 79 77 75 74 72 71 69 68 68 67 67 67 66 65 64 63 62 61 60 60 60 60 60 60
138 138 138 137 137 136 135 135 134 133 133 132 131 131 131 130 129 129 128 128 127 126 126 126 125 125 126 126 126 127 126 126 126 125 124 123 121 119 117 115 114 112 111 109 106 104 101 98 96 94 92 91 90 90 88 86 84 82 80 79 78 78 77 75 74 72 71 69 68 68 67 67 67 66 65 65 64 63 61 61 60 60 60 60 60
135 134 134 133 132 132 131 131 131 130 130 129 129 128 128 127 127 126 126 126 126 125 126 125 125 125 125 126 126 126 125 125 123 122 121 120 118 117 115 113 111 109 106 104 102 99 97 95 94 92 90 89 88 87 86 84 82 80 78 77 76 76 75 74 73 72 71 70 69 68 67 68 68 67 66 66 65 64 62 61 61 60 60 60 60
130 130 129 129 129 129 128 128 128 128 127 127 127 126 126 126 125 125 125 125 125 125 126 126 126 126 126 125 124 124 123 122 121 120 119 118 116 115 112 110 107 105 102 99 97 95 93 92 91 90 89 87 86 84 83 82 80 78 77 76 75 74 74 73 71 71 70 69 69 67 67 67 68 66 66 66 65 63 62 62 62 61 60 59 60
127 126 126 126 126 126 126 126 126 125 125 125 125 125 125 125 125 125 124 125 125 125 126 126 125 125 124 123 121 120 119 119 118 117 116 115 113 111 109 106 103 100 97 95 94 92 90 89 88 87 87 85 84 82 81 80 78 77 76 74 73 73 73 72 70 69 69 68 68 66 66 66 66 66 65 65 64 63 62 62 62 61 60 59 59
124 124 124 124 124 125 125 125 125 125 125 125 125 125 125 125 125 125 125 125 125 125 125 124 123 122 121 120 119 118 117 116 115 114 112 110 108 106 103 101 99 97 95 93 92 90 88 87 86 85 85 84 83 81 79 78 76 76 75 73 72 72 72 71 70 68 67 67 66 66 65 65 65 65 65 64 63 62 62 62 61 60 60 59 58
124 124 125 125 125 125 125 125 125 125 125 125 124 125 125 125 125 125 125 125 124 123 122 121 120 119 118 117 116 115 114 113 111 109 107 105 102 100 99 97 95 94 93 91 90 88 87 86 84 84 83 82 81 80 78 76 75 74 73 72 71 70 70 70 69 67 66 65 65 65 65 64 63 63 63 62 61 61 61 61 60 59 59 58 58
125 126 126 126 125 125 125 125 125 124 124 124 124 124 124 124 124 123 123 122 121 120 119 118 117 116 115 114 113 111 110 108 106 104 102 100 98 97 95 94 93 92 91 90 88 87 86 84 83 82 81 80 79 77 76 75 74 73 72 71 70 69 69 68 68 66 65 64 64 64 63 62 62 62 61 59 59 60 60 59 59 58 58 58 57
126 126 126 125 125 125 125 125 125 125 124 124 123 123 122 122 121 120 120 119 118 117 116 115 114 113 111 110 108 107 105 103 102 100 98 97 95 94 93 93 92 92 91 90 88 86 85 83 82 80 79 77 76 75 74 73 72 72 71 70 69 68 68 67 66 65 64 64 64 63 61 61 60 60 58 57 58 59 58 58 57 57 57 57 57
125 125 125 125 125 125 125 125 124 124 123 122 121 120 119 119 118 117 116 116 115 114 112 111 109 108 106 105 103 102 101 99 98 97 96 94 93 92 91 91 90 90 90 89 87 86 84 83 81 79 77 75 74 73 72 72 71 70 70 69 68 68 67 66 64 64 63 64 63 61 60 60 59 57 56 56 57 57 56 56 56 56 56 55 55
125 126 126 125 125 125 124 123 122 121 120 119 118 117 116 116 115 114 113 112 111 109 108 106 105 103 101 100 99 98 97 97 96 95 94 92 91 90 89 89 88 88 87 86 84 83 82 81 79 78 76 74 73 72 71 70 70 69 69 68 68 67 66 65 63 62 62 62 61 60 59 58 56 55 55 56 55 55 54 54 55 55 55 54 54
126 125 125 124 123 122 121 119 118 117 116 116 115 115 114 113 112 111 110 108 107 105 104 102 100 99 97 96 95 95 94 94 93 92 91 90 89 88 87 86 85 85 84 82 81 79 79 78 77 76 75 73 72 71 70 69 69 68 68 67 66 66 65 64 62 61 60 60 59 59 57 55 54 53 54 54 54 53 53 53 53 54 53 53 53
124 123 122 121 119 118 117 116 116 115 114 114 113 112 111 110 108 107 106 104 102 101 100 98 97 96 95 94 93 92 92 91 90 89 88 87 86 85 84 83 82 81 80 79 78 77 77 76 75 75 73 72 71 70 69 68 68 67 67 66 65 64 63 62 61 60 59 58 57 57 55 53 52 53 53 53 52 52 51 51 52 52 52 52 51
121 120 118 117 117 116 115 115 114 113 112 111 110 109 108 106 105 103 102 100 99 98 97 96 95 94 93 92 91 90 89 89 87 86 85 84 83 81 80 80 79 78 78 77 76 76 75 74 73 73 72 70 69 68 68 67 67 66 65 64 63 62 61 60 59 58 57 56 55 54 53 51 51 52 52 51 51 50 49 49 50 50 50 50 50
118 117 116 116 115 115 114 113 112 111 110 109 107 106 104 102 101 100 98 97 97 96 95 94 93 92 91 90 89 88 87 86 85 84 82 81 79 78 77 77 76 76 76 75 74 74 73 72 71 71 70 69 68 67 66 65 65 64 63 62 61 60 59 58 57 56 55 53 52 51 51 51 51 50 50 50 49 49 48 48 49 49 49 49 49
117 116 115 115 114 113 112 111 110 108 107 105 104 102 100 99 98 97 96 95 94 93 93 92 91 90 89 88 87 86 84 83 82 81 80 78 77 76 75 75 75 74 74 73 73 72 71 71 70 69 68 67 66 65 64 63 63 62 61 60 59 58 57 56 54 53 52 51 50 49 49 50 50 49 48 48 47 47 47 47 47 47 47 48 48
116 115 114 113 112 111 109 108 106 105 103 101 100 98 97 96 95 94 93 92 91 90 90 89 88 87 86 85 84 83 82 81 80 78 77 76 75 74 74 73 73 73 72 72 71 70 70 69 68 67 66 65 64 63 62 62 61 60 59 58 57 56 55 54 52 51 50 49 48 48 48 48 48 48 47 46 46 46 46 47 46 46 46 46 46
114 113 111 110 109 108 106 104 102 100 99 98 97 96 95 94 93 92 91 90 88 87 86 85 85 84 83 82 82 81 80 79 77 76 75 75 74 73 72 72 72 71 71 70 69 69 68 67 66 66 65 64 63 61 60 59 59 58 57 56 55 54 53 52 51 49 48 47 46 46 47 47 47 47 46 45 45 45 45 45 45 45 44 44 45
Wind_Direction
280 280 280 280 280 281 281 282 282 283 284 285 286 287 289 290 291 292 292 293 294 294 295 296 297 298 298 299 299 299 299 299 299 299 300 299 299 299 298 298 298 298 298 299 299 300 301 302 302 302 302 302 302 302 302 302 301 301 301 301 301 301 301 301 301 302 301 301 299 298 298 297 296 295 294 294 293 293 292 291 290 289 287 286 284
280 280 280 281 281 282 282 283 283 284 285 286 287 288 289 291 292 292 293 293 294 295 296 297 297 298 298 299 299 299 299 299 300 300 300 299 299 298 298 298 298 299 299 300 300 301 302 303 303 303 303 303 303 303 303 303 302 302 302 302 302 302 301 302 302 302 301 301 300 299 298 297 296 295 295 294 293 292 291 290 290 288 287 285 284
280 281 281 282 282 283 283 283 284 285 286 287 288 289 290 291 292 292 293 294 294 295 296 297 298 298 299 299 299 299 300 300 300 300 299 299 299 299 299 299 299 300 300 301 302 302 303 303 304 304 304 304 304 304 304 303 303 303 303 303 302 302 302 302 302 302 301 301 300 299 298 297 296 296 295 294 293 292 291 290 289 288 287 285 283
281 282 283 283 283 283 284 284 285 286 287 288 289 290 291 291 292 293 293 294 294 295 296 297 298 299 299 299 299 300 300 300 300 300 299 299 299 299 299 300 301 301 302 302 303 303 304 304 304 305 305 305 305 304 304 304 304 304 304 303 303 303 303 303 302 302 302 301 301 299 298 297 296 296 295 294 293 292 291 290 289 288 287 286 284
283 283 284 284 284 284 285 286 287 288 289 289 290 290 291 292 292 293 294 294 294 295 296 298 298 298 298 299 299 300 300 300 300 300 300 300 300 300 301 301 302 302 302 303 304 304 305 305 305 306 306 306 305 305 305 305 305 304 304 304 304 304 304 303 303 303 303 302 301 300 299 298 297 296 295 293 292 291 291 290 289 287 286 286 284
285 285 285 285 286 286 287 288 288 288 289 289 290 291 292 293 293 294 294 294 294 295 296 297 297 298 298 299 299 299 299 299 300 300 300 300 301 301 301 302 302 303 303 304 305 305 306 306 306 307 307 306 306 305 305 305 305 305 305 305 305 305 305 304 304 304 304 303 302 301 300 299 298 297 295 294 292 291 290 289 288 288 286 285 284
286 286 286 287 287 287 288 288 289 289 290 290 291 291 293 294 295 294 294 294 294 294 295 296 297 297 298 299 299 299 299 299 300 300 301 301 302 302 302 303 303 304 304 305 306 306 306 307 307 307 307 307 306 306 306 306 306 306 306 306 306 306 306 305 305 305 305 304 303 302 301 300 299 298 296 294 293 291 289 288 287 286 287 286 284
287 287 287 287 287 288 288 289 289 290 290 290 291 292 293 294 294 294 294 293 293 294 295 296 297 298 298 299 299 299 299 300 300 301 302 302 302 303 303 304 304 305 306 306 307 307 307 308 308 308 308 307 307 307 307 307 307 307 307 307 307 307 307 307 306 306 306 305 304 303 302 301 300 299 297 295 293 291 289 287 285 284 285 285 285
287 287 287 287 287 288 289 289 289 289 290 291 292 292 293 293 293 293 293 293 293 294 295 296 297 298 298 299 299 299 300 300 301 302 302 303 303 304 304 305 306 306 307 307 308 308 308 309 309 308 308 308 308 308 308 308 308 308 308 308 308 308 308 307 307 307 307 306 305 304 303 302 301 300 298 296 294 292 290 288 286 284 283 284 284
286 287 287 287 287 288 288 288 289 289 290 290 291 292 292 292 292 292 292 292 293 294 295 297 298 298 299 299 299 300 300 301 302 302 303 303 304 305 306 306 307 308 308 309 309 309 309 309 309 309 309 309 309 309 309 309 309 309 309 309 309 309 309 308 308 308 308 307 306 305 304 303 301 300 298 296 294 292 290 288 286 285 284 283 283
286 286 286 287 287 287 287 288 288 289 289 290 290 291 291 292 292 292 292 293 294 295 297 298 298 299 299 299 300 301 301 302 302 303 303 304 305 306 307 308 308 309 309 310 310 310 310 310 310 309 309 309 309 309 309 309 309 309 309 309 309 309 309 309 308 308 308 307 306 305 304 303 301 300 298 296 294 293 290 288 286 285 284 283 282
285 285 285 285 285 286 286 287 287 288 289 289 290 290 291 291 292 292 293 294 295 296 297 298 299 299 299 300 301 301 302 302 302 303 304 305 306 307 308 309 309 310 310 310 310 311 310 310 310 310 310 310 310 310 310 310 310 310 310 310 310 309 309 309 309 309 308 307 306 305 304 302 301 300 298 296 294 292 290 288 286 285 284 282 281
285 284 284 284 284 285 285 286 287 287 288 289 290 291 291 291 292 293 294 295 296 297 298 299 299 300 300 301 301 302 302 302 303 304 305 306 307 308 309 310 310 310 311 311 311 311 311 311 311 310 310 310 310 310 310 310 310 310 310 310 310 310 310 309 309 309 308 307 306 305 303 302 301 300 298 296 294 291 289 287 285 284 283 282 281
283 283 283 283 283 284 285 286 287 288 289 290 290 291 291 292 293 294 295 296 297 298 299 299 300 300 301 301 302 302 302 303 304 305 306 307 308 309 310 310 310 311 311 311 311 311 312 311 311 311 310 310 310 310 311 311 311 311 311 310 311 311 310 310 310 310 308 307 306 305 303 302 301 300 298 296 294 291 288 286 284 283 282 281 280
282 282 283 283 284 285 286 287 288 289 289 290 291 292 292 293 294 295 296 297 298 299 300 300 300 301 301 302 302 303 303 304 305 306 307 308 309 309 310 310 311 311 311 311 311 312 312 311 311 310 310 310 310 311 311 311 311 311 311 311 311 311 311 310 311 310 308 307 306 305 303 302 301 300 299 297 295 292 289 286 284 283 281 280 280
283 284 284 285 286 287 288 289 289 290 290 291 292 293 294 294 295 297 298 298 299 300 300 300 301 301 302 302 303 304 305 306 306 307 308 308 309 310 310 310 311 311 311 311 311 312 312 311 311 310 310 310 311 311 311 311 311 311 311 311 311 311 311 311 311 309 308 307 306 305 304 303 301 300 299 297 295 292 290 287 284 282 280 279 278
285 285 285 286 287 288 289 290 290 291 292 293 294 294 295 296 297 298 299 299 300 300 301 301 301 302 302 303 304 305 306 307 307 308 308 309 309 310 310 310 311 311 310 311 311 312 311 311 310 310 310 311 311 311 311 311 311 311 310 311 311 311 311 311 310 309 308 308 306 305 304 303 301 300 298 296 294 291 289 287 284 282 279 277 276
285 286 287 288 289 290 291 291 292 293 294 295 295 296 297 298 299 299 300 300 300 301 301 302 302 303 304 305 306 306 307 307 308 308 308 309 309 309 310 310 310 310 310 311 311 311 311 310 310 310 311 311 312 311 311 311 311 310 310 311 311 311 312 311 310 309 308 308 306 305 304 303 301 300 298 296 294 291 288 286 284 282 279 276 274
288 289 291 291 292 292 293 293 294 295 296 297 298 298 299 300 300 300 301 301 301 301 302 302 303 304 305 306 306 307 307 307 308 308 308 309 309 309 309 310 310 310 310 311 311 311 310 310 310 310 311 311 312 311 311 310 310 310 310 310 311 312 312 311 309 309 309 308 306 305 304 303 302 300 298 296 294 292 289 286 284 282 279 276 273
293 293 294 294 294 294 295 296 296 297 298 298 299 300 300 300 300 300 300 301 301 302 302 303 304 305 306 306 306 307 307 307 307 308 308 308 308 309 309 309 309 309 310 311 310 310 309 309 310 311 311 311 311 311 310 310 310 310 310 311 311 312 311 310 309 309 308 307 306 305 304 303 302 300 299 297 295 293 290 287 285 282 280 278 275
295 295 295 295 295 296 297 297 298 298 299 299 300 300 300 300 300 300 300 301 302 302 303 304 304 305 305 306 306 306 307 307 307 307 308 308 308 308 308 309 309 309 310 310 310 309 309 310 310 311 311 311 311 310 310 310 309 309 310 310 311 312 311 310 309 309 308 307 305 304 303 302 301 300 298 297 295 293 291 289 286 284 281 279 277
295 295 295 296 296 297 297 298 298 298 299 299 299 299 299 300 300 300 301 301 302 303 303 304 304 304 304 305 305 306 306 306 306 307 307 307 307 307 308 308 309 309 309 309 309 309 309 310 310 311 311 311 310 310 309 309 309 309 309 310 311 311 310 309 308 308 307 306 305 303 302 302 301 300 298 297 295 294 292 290 288 285 282 279 277
295 295 295 296 296 296 296 297 297 297 298 298 298 299 299 299 300 300 301 301 302 302 303 303 303 303 304 304 305 305 305 305 306 306 306 306 306 307 307 308 308 308 308 309 309 309 309 310 310 310 310 310 309 309 308 308 308 308 309 309 310 310 309 308 307 307 306 305 304 303 302 301 300 299 298 296 295 294 292 291 289 287 284 281 278
294 294 295 295 295 295 295 296 296 296 297 297 298 298 299 299 300 300 301 301 301 301 301 302 302 303 303 304 304 304 304 304 305 305 305 305 306 306 307 307 307 308 308 308 309 309 309 309 310 310 309 309 308 308 308 308 308 308 308 309 310 309 308 307 306 306 305 304 303 302 301 301 300 298 297 296 295 294 293 292 290 289 287 284 281
294 294 294 294 294 295 295 295 296 296 297 297 297 298 298 299 299 299 300 300 300 300 301 301 302 302 302 302 303 303 303 304 304 305 305 305 306 306 306 307 307 307 308 308 308 308 309 309 309 309 308 308 308 308 307 307 307 307 308 309 309 308 307 306 305 305 304 304 302 301 300 300 299 297 296 296 295 294 293 292 291 289 288 286 284
293 294 294 294 295 295 295 295 296 296 296 297 297 297 298 298 298 298 299 299 299 299 300 300 301 301 301 301 302 302 303 304 304 304 304 305 305 306 306 306 307 307 307 308 308 308 308 308 308 308 307 307 307 307 307 307 307 307 307 308 308 307 306 305 305 304 304 303 302 300 300 299 298 297 296 295 295 294 293 292 291 290 289 287 285
294 294 294 294 294 295 295 295 295 295 295 296 296 296 297 297 297 297 298 298 298 299 299 299 300 300 301 301 302 302 303 303 303 303 304 304 305 305 305 306 306 307 307 307 307 307 307 307 307 307 306 306 306 306 306 305 305 305 306 307 307 306 305 304 304 303 303 302 301 300 299 298 297 297 296 295 294 293 292 292 291 290 289 288 286
293 293 293 293 293 293 294 294 294 294 295 295 295 295 296 296 296 297 297 297 298 298 299 299 300 300 301 301 301 302 302 302 302 303 303 304 304 305 305 306 306 306 306 306 306 306 306 306 306 305 305 304 304 304 304 304 304 304 305 305 305 304 303 303 302 302 301 300 299 299 298 298 297 297 296 295 294 293 292 291 291 290 289 288 287
292 292 292 292 292 292 293 293 293 293 294 294 294 295 295 295 296 296 297 297 298 298 299 299 299 300 300 301 301 301 301 302 302 302 303 303 304 304 305 305 305 305 305 305 305 305 306 305 304 304 304 303 303 303 302 302 302 303 303 303 302 302 301 301 301 301 300 299 299 299 298 297 297 296 296 295 294 293 292 291 291 290 289 288 287
290 290 290 291 291 291 292 292 292 293 293 293 294 294 295 296 296 296 297 297 298 298 298 299 299 299 300 300 300 301 301 301 302 302 303 303 304 304 304 304 304 304 304 304 304 305 304 304 303 303 303 302 302 302 301 301 301 301 301 301 301 300 300 300 300 300 299 298 298 298 297 296 295 295 295 294 294 293 292 291 291 290 289 288 287
289 290 290 290 291 291 291 292 292 293 293 294 294 295 295 296 296 297 297 297 297 298 298 298 298 299 299 299 300 300 301 301 302 302 302 303 303 303 303 303 303 303 303 303 303 304 303 303 302 302 302 301 301 301 301 301 301 301 300 300 300 299 299 299 299 298 298 297 297 297 296 295 294 294 294 294 293 293 292 291 291 290 289 288 288
290 290 291 291 291 292 292 292 293 293 294 294 295 295 295 295 296 296 296 297 297 297 297 298 298 298 299 299 300 300 301 301 301 302 302 302 302 302 302 302 302 302 302 302 302 302 302 302 302 301 301 301 300 300 300 301 300 300 300 299 299 298 298 298 298 298 297 297 297 296 295 295 295 294 294 294 293 292 292 291 291 290 289 288 288
291 291 291 292 292 292 293 293 293 293 294 294 294 294 294 295 295 295 296 296 296 297 297 298 298 298 299 299 300 300 301 301 301 301 301 301 301 301 301 301 301 301 301 301 301 301 301 301 301 301 300 300 300 300 300 300 300 300 300 299 299 299 299 298 298 298 298 297 297 296 296 295 295 295 294 294 292 292 292 291 291 290 289 288 288
291 291 291 291 292 292 292 292 292 293 293 293 293 294 294 295 295 295 296 296 296 297 297 298 298 299 299 300 300 300 300 301 300 300 300 300 300 300 300 301 301 300 300 300 300 300 299 299 299 299 299 299 299 299 299 299 299 299 299 299 299 299 298 298 298 298 297 297 297 296 296 295 295 294 294 293 292 292 292 291 290 289 289 288 288
290 290 290 291 291 291 291 292 292 292 293 293 294 294 294 295 295 296 296 296 297 297 298 298 299 299 299 300 300 300 300 300 300 300 300 299 299 299 300 300 299 299 299 299 299 299 298 298 298 298 298 298 298 298 298 298 298 298 298 298 298 298 297 297 297 297 297 297 296 295 295 295 294 294 294 293 292 292 292 291 290 289 289 289 288
290 290 290 290 291 291 291 292 292 293 293 294 294 294 295 295 295 296 296 297 297 298 298 299 299 299 299 299 299 299 299 299 299 299 299 299 299 299 299 299 298 298 298 297 297 297 297 298 298 298 298 297 297 297 297 297 297 298 297 297 297 296 296 296 296 296 296 296 295 295 294 294 293 293 293 292 291 292 292 290 289 289 288 288 288
290 290 290 291 291 291 292 292 292 293 293 294 294 294 295 295 296 296 297 297 298 298 298 298 298 298 298 298 298 298 298 298 298 298 298 298 298 298 298 297 297 297 297 296 296 296 297 297 297 297 297 297 297 297 297 297 297 297 297 296 296 295 295 295 295 295 294 294 294 293 293 292 292 292 291 290 290 291 290 289 288 288 288 287 286
290 290 290 291 291 291 292 292 293 293 293 294 294 295 295 296 296 297 297 297 298 297 297 297 297 297 297 297 297 297 297 297 297 297 297 297 297 297 296 296 296 296 296 296 296 296 297 297 297 297 297 297 297 297 297 297 297 296 296 296 295 295 295 294 294 293 293 293 292 292 291 290 290 290 289 289 289 289 288 287 287 287 286 286 285
290 290 290 291 291 292 292 292 293 293 294 294 295 295 296 296 297 297 297 297 297 297 296 296 296 296 296 296 296 296 296 296 296 295 295 295 296 296 296 296 296 296 296 296 296 296 297 297 297 297 297 297 297 297 297 296 296 296 295 295 295 294 293 293 292 292 292 292 291 290 289 288 288 288 287 288 288 288 287 286 286 285 285 284 284
290 291 291 291 292 292 293 293 293 294 294 295 295 296 296 297 297 297 296 296 296 296 296 296 296 296 296 296 295 295 295 295 295 295 295 295 295 295 296 296 296 296 296 296 297 297 297 297 297 297 297 297 297 297 296 296 296 295 295 294 294 293 292 292 292 291 291 291 290 289 288 287 287 287 287 287 287 286 285 284 284 284 283 283 282
291 291 291 292 292 293 293 294 294 294 295 295 296 296 296 296 296 296 295 295 295 295 295 295 295 295 295 295 294 294 294 294 294 295 295 295 295 296 296 296 296 296 296 296 297 297 297 297 297 297 296 296 296 296 296 295 295 294 294 293 293 292 291 291 291 291 290 289 288 287 287 287 286 285 286 286 285 284 283 283 283 282 282 282 281
291 291 292 292 293 293 294 294 294 295 295 295 296 295 295 295 295 295 294 294 294 294 294 294 294 294 294 294 294 294 294 294 294 295 295 295 296 296 296 296 297 297 297 297 297 297 297 297 297 296 296 296 295 295 295 294 294 294 293 292 292 291 290 290 290 290 289 288 287 287 286 286 285 285 285 284 283 282 282 282 282 281 281 280 281
291 292 292 293 293 294 294 294 295 295 295 295 295 295 294 294 294 294 294 294 294 294 294 294 294 294 294 294 294 294 294 294 294 295 295 295 296 296 296 296 296 296 297 297 297 297 297 296 296 296 295 295 295 295 294 294 293 293 292 292 291 290 290 290 289 289 288 287 287 287 286 285 285 285 284 282 281 281 281 281 280 280 280 280 280
292 292 292 293 293 294 294 294 294 295 295 294 294 294 294 294 294 294 294 294 294 294 294 294 294 294 294 294 294 294 294 294 294 294 294 295 295 295 295 295 295 295 295 295 295 295 295 295 295 295 295 295 295 294 293 293 292 292 291 291 290 290 290 289 289 288 287 287 287 286 285 285 285 284 282 281 280 280 280 279 279 279 279 279 279
292 292 293 293 293 294 294 294 294 294 294 294 294 294 294 294 294 294 294 294 294 294 294 294 294 294 294 294 294 293 293 293 293 294 294 294 294 294 294 294 294 294 294 294 294 294 294 294 294 294 294 294 294 293 293 292 292 291 291 290 290 290 289 289 288 288 287 286 286 285 285 285 284 283 281 280 279 279 279 278 278 278 278 279 279
292 292 293 293 293 294 294 294 294 294 294 294 294 294 294 294 294 294 294 295 295 294 294 294 294 294 294 294 294 293 293 293 293 293 294 294 294 294 294 294 294 293 293 293 294 293 293 293 293 293 293 293 293 293 293 292 292 291 290 290 290 289 289 289 288 288 287 286 285 285 285 284 282 281 279 279 278 278 278 278 278 278 278 278 278
292 293 293 293 294 294 294 294 294 294 294 294 294 294 295 295 295 295 295 295 295 294 294 294 294 294 294 294 294 294 294 294 294 294 294 294 294 294 294 293 293 293 293 293 293 293 293 293 292 293 293 293 293 293 292 292 291 291 290 290 289 289 288 288 287 287 286 285 285 284 284 282 281 279 279 278 278 278 278 277 277 277 277 277 278
293 293 293 294 294 294 294 294 294 294 294 295 295 295 295 295 295 294 294 294 294 294 294 294 294 294 294 294 294 294 294 294 294 294 294 294 294 294 293 293 293 293 293 293 292 292 292 292 293 293 293 293 293 293 292 292 291 291 290 290 289 289 288 287 286 286 285 285 284 283 282 281 279 278 278 278 278 278 277 277 277 277 277 277 277
293 293 293 294 294 294 294 294 294 294 294 294 294 294 294 294 294 294 294 294 294 294 294 294 294 294 294 294 294 294 294 294 294 294 294 294 294 293 293 293 293 293 293 293 293 293 293 293 293 293 293 293 293 293 292 292 291 291 290 290 289 288 287 287 286 285 285 284 283 282 281 280 279 279 278 278 278 277 277 277 277 277 277 277 277
293 293 293 294 294 294 294 294 294 294 294 294 294 294 294 294 294 294 294 294 294 294 294 294 294 294 294 294 294 294 294 294 294 294 294 294 293 293 293 293 293 293 293 293 293 293 294 294 294 294 294 293 293 293 292 292 291 290 290 289 288 288 287 286 286 285 284 284 283 281 280 280 279 278 278 277 277 277 277 277 277 276 276 276 277
293 293 293 293 294 294 294 294 294 294 294 294 294 294 294 294 294 294 294 294 294 294 294 293 294 294 294 294 294 294 294 294 294 294 294 294 293 293 293 293 293 293 293 293 294 294 294 294 294 294 294 293 293 293 292 292 291 290 290 289 288 288 287 286 286 285 285 284 283 281 280 279 279 278 278 278 277 277 277 276 276 276 276 276 276
Height
10639 10638 10636 10634 10632 10630 10628 10625 10622 10620 10617 10615 10612 10609 10606 10603 10600 10596 10592 10587 10583 10579 10576 10572 10568 10563 10558 10554 10549 10544 10540 10535 10531 10527 10521 10514 10507 10500 10495 10489 10484 10479 10473 10466 10460 10453 10446 10438 10430 10421 10413 10406 10398 10389 10380 10371 10362 10354 10345 10337 10329 10321 10316 10310 10306 10303 10292 10278 10269 10261 10253 10247 10238 10226 10219 10215 10207 10201 10196 10192 10191 10189 10186 10183 10180
10631 10630 10628 10626 10624 10622 10619 10616 10614 10611 10608 10606 10603 10600 10597 10594 10590 10585 10581 10576 10572 10569 10565 10561 10556 10552 10547 10542 10537 10533 10528 10524 10519 10515 10509 10502 10495 10488 10483 10476 10471 10465 10459 10452 10446 10439 10432 10424 10416 10407 10399 10391 10383 10373 10364 10355 10346 10338 10329 10320 10312 10303 10297 10292 10287 10283 10277 10264 10252 10244 10235 10228 10223 10214 10205 10200 10194 10189 10182 10176 10173 10172 10170 10168 10166
10623 10622 10620 10618 10616 10613 10610 10607 10604 10602 10599 10596 10594 10591 10587 10583 10579 10575 10570 10566 10562 10558 10555 10550 10545 10540 10535 10530 10525 10521 10516 10512 10507 10502 10497 10490 10483 10476 10470 10463 10457 10452 10445 10438 10431 10424 10417 10410 10401 10392 10384 10376 10367 10358 10349 10340 10330 10321 10312 10303 10295 10286 10278 10273 10268 10262 10258 10250 10238 10229 10220 10212 10206 10200 10192 10186 10179 10174 10170 10164 10157 10154 10152 10152 10151
10615 10613 10611 10609 10607 10604 10600 10597 10595 10592 10589 10586 10584 10580 10577 10573 10568 10564 10560 10555 10551 10548 10543 10539 10534 10529 10524 10519 10514 10509 10505 10500 10495 10490 10484 10478 10470 10463 10456 10450 10444 10438 10431 10424 10416 10409 10402 10394 10385 10377 10369 10360 10351 10342 10333 10324 10315 10305 10296 10287 10278 10270 10262 10254 10249 10243 10238 10233 10223 10213 10206 10198 10191 10186 10180 10174 10166 10158 10154 10151 10145 10139 10136 10135 10135
10607 10605 10602 10599 10596 10593 10590 10588 10585 10582 10579 10576 10573 10570 10566 10562 10557 10553 10548 10544 10540 10536 10532 10527 10522 10517 10512 10507 10503 10498 10493 10488 10482 10477 10471 10465 10458 10450 10443 10436 10431 10424 10417 10409 10402 10394 10386 10377 10369 10361 10353 10343 10334 10326 10317 10308 10299 10289 10280 10271 10261 10253 10245 10237 10230 10224 10218 10213 10206 10198 10190 10183 10177 10172 10166 10160 10156 10149 10141 10135 10131 10126 10123 10120 10119
10597 10595 10592 10589 10586 10583 10580 10577 10574 10572 10569 10565 10562 10559 10555 10550 10546 10541 10537 10532 10529 10525 10521 10516 10511 10506 10501 10496 10491 10486 10481 10475 10469 10464 10458 10452 10444 10436 10429 10423 10417 10410 10403 10395 10387 10379 10369 10361 10354 10345 10336 10327 10317 10309 10300 10291 10283 10274 10264 10255 10246 10237 10228 10220 10213 10206 10200 10194 10188 10181 10174 10168 10162 10158 10152 10146 10142 10140 10133 10125 10116 10110 10109 10108 10105
10588 10585 10582 10579 10576 10573 10569 10567 10564 10561 10558 10554 10550 10547 10543 10539 10535 10530 10525 10521 10517 10514 10510 10505 10501 10496 10490 10484 10479 10474 10468 10462 10457 10451 10445 10438 10430 10422 10415 10408 10402 10395 10388 10380 10372 10363 10354 10345 10338 10330 10320 10310 10301 10292 10283 10275 10266 10257 10248 10239 10230 10221 10212 10204 10196 10189 10183 10177 10170 10163 10158 10152 10146 10143 10139 10133 10128 10125 10122 10118 10110 10099 10094 10093 10092
10577 10574 10571 10568 10565 10561 10559 10556 10553 10550 10546 10542 10539 10536 10532 10528 10524 10519 10515 10511 10506 10503 10499 10494 10490 10484 10478 10473 10467 10461 10455 10449 10443 10438 10431 10424 10416 10409 10401 10393 10386 10379 10372 10364 10356 10347 10338 10330 10322 10314 10304 10294 10285 10276 10267 10259 10250 10241 10232 10223 10214 10206 10197 10189 10181 10174 10168 10161 10154 10147 10142 10137 10132 10128 10125 10120 10117 10112 10107 10105 10102 10093 10087 10082 10078
10565 10563 10560 10557 10553 10551 10548 10545 10542 10538 10535 10531 10528 10525 10522 10518 10513 10509 10504 10499 10495 10491 10487 10483 10478 10472 10466 10460 10455 10449 10442 10436 10430 10424 10417 10410 10403 10395 10387 10378 10371 10363 10355 10348 10340 10331 10322 10314 10306 10297 10288 10278 10269 10260 10252 10243 10235 10225 10216 10207 10199 10191 10183 10174 10166 10160 10153 10146 10138 10133 10128 10123 10118 10114 10111 10106 10103 10101 10095 10091 10088 10084 10081 10077 10070
10555 10552 10549 10546 10543 10540 10537 10534 10531 10528 10525 10521 10518 10515 10511 10508 10503 10498 10493 10488 10484 10480 10476 10471 10466 10460 10454 10448 10442 10436 10429 10422 10416 10410 10403 10396 10389 10381 10372 10363 10355 10346 10339 10331 10323 10315 10306 10298 10290 10281 10272 10262 10253 10245 10237 10228 10220 10211 10202 10193 10184 10176 10168 10161 10153 10146 10140 10131 10123 10118 10115 10110 10105 10102 10100 10096 10091 10088 10084 10079 10076 10073 10071 10069 10065
10544 10542 10539 10536 10533 10531 10527 10524 10521 10518 10515 10511 10508 10505 10501 10497 10492 10486 10480 10476 10472 10469 10464 10459 10453 10447 10441 10435 10429 10423 10415 10408 10402 10395 10389 10383 10375 10367 10358 10348 10339 10330 10322 10315 10307 10298 10290 10282 10274 10265 10256 10246 10237 10230 10222 10213 10205 10196 10187 10179 10171 10163 10155 10147 10141 10135 10127 10118 10110 10105 10102 10098 10094 10090 10088 10085 10081 10077 10073 10067 10066 10064 10061 10060 10057
10534 10532 10529 10526 10524 10521 10517 10514 10511 10508 10505 10501 10497 10494 10489 10485 10479 10473 10468 10464 10460 10457 10452 10446 10439 10433 10427 10421 10416 10409 10402 10394 10388 10382 10376 10368 10361 10353 10343 10333 10324 10314 10306 10298 10290 10282 10273 10265 10257 10248 10239 10230 10222 10215 10207 10198 10189 10181 10172 10164 10157 10150 10142 10134 10128 10122 10115 10106 10099 10094 10089 10085 10082 10079 10077 10075 10072 10068 10063 10057 10055 10054 10052 10050 10048
10524 10521 10518 10515 10513 10510 10506 10503 10500 10497 10494 10490 10486 10482 10477 10472 10466 10461 10456 10451 10448 10444 10438 10432 10425 10418 10413 10407 10402 10395 10387 10380 10374 10368 10361 10354 10346 10338 10328 10318 10309 10299 10290 10283 10274 10266 10258 10250 10240 10231 10222 10215 10207 10200 10192 10183 10174 10165 10157 10150 10143 10136 10128 10120 10114 10109 10101 10093 10088 10083 10077 10073 10070 10068 10065 10064 10062 10059 10054 10049 10046 10044 10041 10039 10038
10513 10510 10507 10504 10502 10499 10495 10492 10490 10486 10482 10477 10473 10469 10464 10459 10454 10448 10444 10439 10435 10430 10424 10418 10411 10404 10399 10393 10387 10380 10372 10365 10359 10352 10345 10338 10331 10323 10313 10303 10294 10285 10275 10267 10259 10251 10243 10234 10224 10214 10205 10199 10192 10186 10177 10168 10159 10151 10142 10135 10129 10122 10114 10107 10101 10095 10086 10081 10077 10071 10066 10062 10059 10056 10054 10052 10051 10049 10045 10042 10039 10036 10032 10028 10027
10501 10498 10496 10493 10491 10487 10483 10481 10478 10473 10469 10464 10460 10456 10450 10446 10441 10436 10431 10426 10420 10415 10410 10403 10397 10390 10384 10378 10371 10364 10356 10349 10343 10336 10328 10321 10314 10308 10299 10288 10279 10270 10260 10251 10244 10237 10228 10218 10208 10198 10189 10182 10177 10171 10162 10153 10145 10136 10128 10122 10116 10109 10101 10094 10088 10081 10073 10068 10064 10059 10055 10051 10047 10044 10042 10041 10040 10037 10034 10032 10031 10029 10025 10019 10016
10489 10486 10484 10481 10478 10475 10472 10469 10464 10460 10456 10451 10447 10442 10437 10432 10427 10422 10417 10412 10406 10400 10394 10389 10382 10375 10369 10362 10355 10348 10339 10332 10325 10319 10311 10304 10297 10292 10284 10274 10265 10255 10243 10235 10229 10222 10212 10201 10192 10183 10175 10167 10161 10154 10147 10139 10131 10122 10115 10109 10103 10096 10088 10082 10076 10067 10060 10056 10052 10046 10043 10041 10037 10034 10032 10031 10030 10028 10024 10021 10021 10022 10019 10013 10007
10476 10473 10471 10469 10466 10463 10459 10454 10450 10446 10442 10438 10433 10428 10423 10418 10413 10408 10402 10397 10391 10385 10379 10373 10367 10360 10353 10346 10339 10331 10323 10314 10307 10301 10294 10287 10280 10275 10268 10259 10251 10240 10228 10221 10214 10206 10195 10184 10175 10168 10161 10153 10146 10138 10131 10124 10117 10109 10102 10097 10091 10084 10077 10071 10063 10054 10048 10043 10039 10034 10032 10030 10027 10024 10021 10020 10020 10019 10016 10013 10011 10011 10011 10007 10002
10463 10461 10458 10456 10453 10448 10444 10439 10435 10431 10427 10423 10418 10413 10409 10404 10398 10392 10387 10382 10376 10369 10363 10357 10350 10343 10336 10329 10322 10314 10306 10296 10288 10283 10277 10270 10263 10257 10250 10243 10234 10224 10214 10207 10199 10189 10178 10168 10160 10153 10147 10139 10131 10123 10116 10109 10102 10095 10089 10084 10079 10073 10066 10059 10051 10043 10037 10031 10026 10022 10020 10018 10016 10014 10011 10009 10009 10008 10007 10005 10002 10001 10000 9999 9997
10449 10447 10444 10440 10436 10433 10428 10424 10421 10416 10412 10408 10403 10398 10394 10388 10382 10377 10371 10365 10359 10353 10347 10340 10333 10326 10319 10312 10305 10298 10289 10279 10271 10265 10259 10252 10245 10239 10233 10226 10217 10207 10199 10192 10183 10173 10162 10153 10145 10139 10133 10126 10118 10109 10101 10094 10088 10082 10076 10071 10067 10061 10055 10047 10039 10033 10026 10020 10014 10010 10008 10007 10005 10003 10001 9999 9998 9997 9996 9995 9993 9992 9990 9989 9989
10436 10433 10429 10425 10420 10417 10413 10409 10405 10401 10396 10392 10387 10383 10378 10372 10366 10361 10355 10349 10343 10337 10330 10323 10316 10309 10302 10295 10289 10281 10273 10264 10254 10247 10241 10234 10227 10221 10216 10209 10200 10191 10184 10177 10167 10157 10147 10138 10131 10124 10118 10112 10104 10095 10087 10080 10074 10068 10062 10058 10054 10049 10043 10035 10028 10022 10016 10010 10004 10000 9998 9996 9994 9992 9990 9988 9986 9985 9985 9984 9983 9982 9981 9979 9978
10423 10418 10414 10410 10405 10401 10398 10394 10389 10385 10380 10376 10371 10367 10361 10356 10351 10345 10338 10332 10326 10320 10313 10306 10300 10293 10286 10280 10273 10265 10256 10248 10239 10231 10224 10216 10209 10203 10198 10192 10183 10176 10169 10161 10151 10141 10132 10124 10116 10109 10104 10098 10089 10080 10073 10066 10060 10054 10050 10046 10042 10037 10031 10024 10018 10012 10006 10001 9995 9990 9988 9986 9984 9982 9980 9978 9976 9974 9973 9973 9972 9971 9971 9970 9969
10408 10403 10399 10395 10391 10387 10383 10379 10374 10369 10365 10360 10355 10351 10345 10340 10334 10328 10322 10316 10310 10303 10297 10290 10284 10278 10271 10264 10258 10249 10240 10232 10224 10216 10207 10198 10190 10185 10181 10175 10167 10160 10154 10146 10136 10126 10117 10110 10103 10096 10089 10083 10074 10066 10059 10052 10046 10042 10038 10035 10032 10027 10020 10013 10008 10003 9997 9992 9987 9982 9979 9977 9974 9971 9970 9968 9966 9964 9962 9961 9961 9961 9960 9960 9960
10394 10390 10386 10381 10377 10373 10369 10364 10360 10355 10350 10345 10340 10335 10329 10323 10318 10311 10305 10300 10294 10288 10282 10275 10269 10264 10257 10249 10242 10234 10225 10217 10210 10202 10191 10180 10172 10167 10163 10159 10152 10145 10139 10131 10121 10111 10103 10097 10090 10083 10076 10068 10060 10052 10045 10038 10033 10029 10025 10023 10020 10015 10008 10002 9998 9993 9988 9983 9978 9973 9970 9968 9965 9962 9960 9958 9956 9954 9951 9950 9950 9950 9948 9948 9949
10380 10376 10372 10367 10363 10359 10354 10350 10345 10340 10335 10330 10324 10319 10312 10307 10301 10296 10289 10284 10279 10273 10266 10260 10254 10248 10242 10235 10227 10218 10210 10202 10194 10185 10174 10163 10156 10150 10146 10141 10135 10130 10124 10117 10107 10097 10089 10083 10077 10071 10063 10055 10046 10038 10030 10023 10019 10015 10012 10010 10008 10003 9997 9991 9987 9983 9978 9974 9970 9965 9961 9959 9956 9953 9950 9948 9946 9944 9941 9939 9939 9939 9937 9935 9936
10365 10361 10357 10353 10349 10344 10340 10335 10329 10324 10319 10314 10308 10303 10297 10291 10286 10280 10275 10269 10263 10257 10251 10244 10238 10232 10226 10220 10212 10203 10195 10187 10178 10168 10158 10148 10141 10134 10128 10123 10117 10112 10108 10103 10094 10084 10076 10070 10064 10057 10049 10041 10034 10026 10017 10010 10005 10001 9999 9998 9996 9992 9986 9981 9976 9972 9968 9964 9960 9956 9952 9950 9947 9944 9941 9939 9937 9935 9932 9929 9928 9928 9927 9924 9923
10350 10346 10342 10337 10333 10328 10323 10318 10313 10308 10303 10298 10293 10287 10282 10277 10271 10266 10260 10254 10247 10242 10235 10228 10222 10216 10210 10203 10196 10187 10179 10171 10163 10152 10142 10134 10127 10119 10112 10106 10100 10094 10090 10086 10081 10074 10066 10058 10050 10042 10034 10027 10021 10015 10007 9999 9992 9988 9986 9986 9984 9980 9974 9970 9966 9961 9957 9954 9950 9946 9943 9940 9937 9934 9932 9930 9928 9927 9924 9920 9918 9917 9917 9915 9912
10333 10329 10324 10320 10316 10311 10307 10302 10297 10292 10287 10283 10278 10272 10267 10262 10256 10250 10245 10238 10232 10226 10219 10213 10206 10199 10192 10185 10178 10171 10163 10155 10146 10137 10128 10121 10114 10105 10096 10090 10083 10077 10072 10068 10064 10060 10055 10048 10039 10030 10021 10014 10009 10003 9997 9990 9982 9977 9974 9973 9970 9966 9962 9958 9955 9951 9948 9944 9940 9937 9934 9931 9927 9924 9922 9920 9919 9918 9916 9912 9909 9907 9906 9905 9902
10316 10312 10307 10304 10299 10295 10291 10287 10282 10277 10272 10267 10262 10257 10251 10246 10240 10234 10228 10222 10216 10209 10202 10195 10188 10181 10174 10168 10161 10154 10147 10139 10130 10122 10115 10108 10099 10090 10082 10075 10067 10061 10055 10050 10046 10043 10040 10035 10027 10019 10011 10004 9998 9993 9987 9980 9974 9969 9965 9962 9959 9955 9951 9948 9945 9942 9938 9935 9931 9927 9924 9921 9918 9915 9912 9909 9908 9908 9907 9904 9901 9898 9896 9894 9892
10300 10296 10292 10288 10283 10279 10275 10271 10266 10262 10256 10251 10245 10240 10235 10229 10223 10217 10211 10204 10198 10191 10184 10178 10170 10163 10157 10151 10143 10136 10131 10123 10114 10107 10101 10093 10084 10076 10068 10060 10053 10047 10040 10033 10029 10028 10024 10018 10012 10005 9998 9991 9986 9981 9975 9969 9965 9961 9957 9953 9950 9946 9941 9938 9935 9932 9929 9924 9921 9918 9915 9911 9908 9906 9903 9900 9897 9897 9897 9895 9892 9889 9886 9884 9882
10284 10279 10275 10271 10267 10263 10259 10255 10250 10245 10239 10234 10228 10222 10217 10211 10205 10198 10192 10186 10180 10173 10166 10160 10153 10146 10140 10133 10126 10119 10114 10107 10099 10092 10085 10077 10070 10062 10055 10047 10040 10033 10026 10019 10015 10013 10008 10002 9997 9991 9984 9978 9973 9967 9962 9957 9953 9950 9946 9943 9939 9935 9930 9927 9925 9922 9919 9915 9912 9909 9906 9902 9899 9896 9894 9891 9888 9886 9886 9886 9884 9879 9876 9874 9871
10266 10262 10259 10255 10251 10246 10241 10237 10232 10226 10221 10215 10209 10203 10197 10192 10186 10180 10174 10168 10162 10155 10149 10143 10136 10129 10123 10116 10109 10103 10097 10090 10083 10076 10069 10063 10056 10048 10041 10034 10027 10020 10012 10005 10001 9998 9992 9987 9983 9978 9970 9964 9959 9954 9949 9945 9941 9937 9934 9931 9927 9923 9919 9916 9914 9912 9908 9905 9902 9899 9896 9893 9890 9887 9885 9882 9879 9876 9874 9875 9874 9871 9866 9864 9862
10248 10244 10240 10235 10231 10226 10221 10216 10211 10206 10201 10196 10190 10185 10179 10174 10168 10163 10157 10151 10145 10138 10131 10125 10119 10113 10107 10100 10094 10087 10081 10074 10067 10059 10053 10047 10041 10035 10028 10021 10013 10006 9999 9992 9988 9984 9977 9971 9968 9964 9957 9951 9946 9940 9936 9932 9928 9924 9921 9918 9915 9911 9908 9905 9903 9900 9897 9895 9892 9889 9885 9882 9880 9877 9875 9873 9870 9867 9865 9864 9863 9861 9857 9854 9852
10229 10224 10219 10215 10210 10205 10201 10196 10192 10187 10183 10178 10172 10167 10161 10156 10150 10145 10140 10134 10128 10121 10114 10108 10102 10096 10089 10083 10077 10071 10064 10058 10050 10043 10036 10029 10023 10018 10013 10007 10000 9992 9985 9979 9975 9971 9964 9957 9953 9949 9942 9937 9932 9927 9923 9920 9916 9911 9908 9905 9901 9897 9894 9892 9890 9888 9886 9883 9881 9877 9874 9872 9869 9866 9864 9862 9860 9858 9856 9854 9852 9850 9847 9845 9842
10209 10205 10200 10196 10191 10187 10183 10179 10174 10170 10165 10160 10155 10150 10144 10138 10132 10126 10121 10115 10109 10103 10097 10091 10085 10079 10071 10064 10057 10052 10046 10040 10033 10026 10019 10012 10006 10000 9996 9991 9985 9978 9970 9964 9960 9957 9952 9947 9942 9936 9931 9926 9921 9915 9912 9909 9905 9901 9897 9892 9889 9885 9882 9879 9877 9875 9874 9872 9869 9866 9864 9861 9858 9856 9854 9852 9850 9849 9847 9845 9843 9840 9838 9835 9833
10191 10187 10183 10178 10174 10169 10165 10161 10156 10152 10147 10142 10137 10132 10126 10120 10115 10109 10103 10097 10091 10085 10079 10073 10068 10062 10055 10047 10040 10033 10028 10022 10015 10008 10002 9995 9990 9985 9980 9976 9971 9964 9957 9950 9945 9941 9937 9933 9929 9925 9920 9916 9910 9905 9900 9897 9894 9891 9886 9882 9878 9874 9871 9868 9866 9864 9862 9861 9858 9856 9853 9850 9848 9846 9844 9841 9840 9839 9838 9836 9833 9831 9829 9827 9824
10173 10169 10165 10160 10156 10152 10147 10142 10137 10132 10127 10122 10117 10112 10107 10102 10097 10091 10086 10080 10073 10067 10061 10054 10049 10043 10038 10031 10024 10017 10010 10004 9997 9991 9984 9978 9973 9968 9964 9960 9955 9950 9944 9938 9932 9927 9923 9918 9914 9910 9907 9903 9899 9893 9889 9885 9882 9879 9876 9872 9868 9864 9860 9858 9856 9853 9851 9849 9847 9845 9843 9840 9837 9836 9834 9832 9830 9829 9828 9825 9823 9822 9820 9818 9815
10155 10151 10147 10142 10137 10133 10128 10124 10119 10114 10109 10104 10099 10094 10089 10084 10079 10074 10068 10062 10056 10050 10043 10036 10030 10024 10019 10014 10008 10001 9994 9988 9981 9974 9968 9961 9956 9951 9947 9943 9939 9934 9930 9925 9920 9915 9911 9906 9901 9897 9893 9889 9885 9881 9877 9873 9870 9868 9865 9862 9858 9854 9850 9848 9846 9844 9841 9839 9837 9835 9833 9830 9827 9826 9825 9822 9821 9820 9818 9815 9813 9812 9811 9810 9807
10137 10133 10128 10124 10119 10115 10110 10106 10101 10097 10092 10087 10082 10077 10071 10066 10061 10056 10050 10045 10039 10032 10026 10020 10014 10007 10001 9996 9991 9985 9979 9972 9966 9960 9953 9947 9941 9935 9931 9927 9923 9918 9914 9910 9906 9902 9898 9894 9889 9884 9880 9875 9872 9868 9865 9862 9859 9856 9853 9851 9848 9844 9840 9837 9836 9834 9832 9829 9827 9825 9823 9820 9818 9817 9816 9814 9812 9810 9808 9806 9804 9802 9801 9801 9799
10118 10114 10110 10106 10101 10097 10092 10088 10084 10079 10074 10069 10064 10059 10053 10048 10042 10037 10031 10026 10020 10014 10008 10003 9997 9991 9985 9979 9974 9969 9963 9956 9950 9945 9939 9933 9927 9921 9916 9911 9907 9903 9899 9895 9891 9888 9885 9881 9877 9872 9867 9862 9858 9856 9853 9851 9848 9845 9842 9840 9837 9833 9829 9826 9825 9823 9822 9820 9817 9815 9812 9810 9809 9808 9806 9805 9803 9801 9798 9796 9795 9793 9791 9791 9790
10099 10095 10091 10087 10083 10079 10075 10071 10066 10061 10056 10051 10046 10041 10035 10030 10024 10018 10012 10006 10001 9995 9990 9984 9979 9974 9968 9963 9958 9952 9946 9940 9934 9929 9924 9919 9913 9907 9902 9897 9893 9889 9885 9881 9878 9874 9871 9867 9863 9859 9855 9851 9847 9843 9841 9839 9836 9833 9830 9828 9826 9823 9819 9816 9814 9813 9812 9810 9807 9805 9802 9801 9800 9799 9797 9796 9794 9791 9788 9787 9785 9784 9782 9781 9780
10081 10077 10073 10069 10065 10061 10057 10052 10048 10043 10038 10033 10028 10023 10017 10011 10006 10000 9994 9988 9982 9977 9972 9967 9961 9956 9951 9946 9941 9936 9930 9924 9919 9913 9909 9904 9899 9893 9888 9883 9878 9874 9870 9867 9865 9861 9858 9854 9850 9846 9843 9840 9836 9833 9830 9827 9825 9822 9819 9816 9814 9811 9808 9806 9804 9803 9801 9799 9797 9794 9793 9792 9791 9789 9788 9787 9784 9781 9779 9777 9776 9774 9773 9771 9770
10063 10059 10055 10050 10046 10042 10038 10034 10030 10025 10020 10015 10010 10005 9999 9994 9988 9982 9976 9971 9965 9960 9955 9950 9945 9939 9934 9928 9924 9919 9914 9909 9904 9899 9894 9890 9885 9881 9875 9870 9864 9859 9855 9852 9849 9846 9843 9840 9836 9833 9831 9828 9825 9822 9820 9817 9814 9811 9807 9804 9802 9800 9797 9796 9794 9793 9791 9788 9786 9784 9784 9783 9782 9780 9779 9777 9774 9771 9770 9768 9766 9765 9764 9762 9761
10045 10041 10037 10033 10029 10024 10020 10016 10011 10007 10002 9997 9992 9987 9981 9976 9970 9964 9959 9954 9948 9943 9938 9932 9927 9922 9917 9912 9907 9902 9898 9893 9889 9884 9880 9876 9872 9868 9864 9858 9853 9848 9843 9839 9836 9832 9829 9826 9823 9820 9819 9816 9814 9811 9808 9805 9803 9800 9796 9793 9791 9789 9787 9785 9785 9783 9780 9777 9775 9775 9774 9773 9772 9771 9770 9767 9764 9763 9761 9759 9757 9755 9754 9753 9753
10028 10024 10020 10016 10011 10007 10002 9998 9993 9989 9984 9979 9973 9968 9963 9957 9952 9947 9941 9936 9931 9926 9920 9915 9910 9905 9901 9896 9891 9886 9882 9878 9874 9870 9866 9863 9859 9856 9851 9847 9842 9837 9832 9828 9825 9821 9817 9814 9811 9808 9806 9804 9802 9799 9796 9794 9791 9788 9785 9782 9780 9778 9776 9775 9774 9773 9770 9767 9765 9765 9764 9763 9763 9762 9759 9757 9755 9754 9753 9751 9748 9746 9745 9744 9744
10011 10007 10003 9999 9994 9990 9985 9981 9976 9971 9966 9960 9955 9949 9944 9939 9934 9929 9924 9919 9914 9909 9903 9899 9894 9889 9885 9881 9877 9872 9868 9864 9860 9857 9853 9850 9847 9843 9839 9835 9830 9825 9821 9817 9814 9811 9807 9803 9800 9798 9795 9793 9790 9788 9785 9782 9779 9776 9774 9772 9770 9767 9766 9764 9763 9762 9760 9758 9756 9755 9754 9754 9753 9751 9748 9747 9745 9745 9744 9742 9740 9738 9737 9736 9735
9994 9990 9985 9981 9977 9972 9967 9963 9958 9952 9947 9942 9937 9932 9927 9922 9917 9912 9907 9902 9897 9892 9887 9883 9879 9874 9870 9867 9862 9858 9854 9850 9846 9843 9840 9837 9834 9830 9826 9822 9818 9813 9809 9806 9802 9799 9796 9793 9790 9787 9784 9782 9780 9777 9774 9771 9768 9765 9763 9761 9759 9757 9755 9753 9752 9751 9750 9748 9747 9745 9745 9744 9743 9740 9738 9737 9736 9736 9735 9734 9731 9730 9729 9728 9727
9976 9972 9968 9964 9959 9954 9949 9944 9939 9934 9929 9925 9919 9915 9910 9905 9900 9895 9891 9886 9882 9877 9873 9868 9864 9860 9856 9852 9848 9844 9840 9836 9833 9830 9827 9824 9821 9818 9814 9810 9806 9801 9798 9795 9791 9788 9785 9782 9779 9776 9773 9771 9768 9766 9763 9760 9757 9754 9752 9750 9749 9747 9745 9743 9742 9741 9740 9738 9737 9736 9735 9734 9732 9730 9728 9728 9727 9727 9726 9725 9723 9722 9721 9720 9719
9959 9955 9951 9947 9942 9937 9932 9927 9922 9916 9912 9907 9903 9898 9894 9889 9885 9880 9876 9871 9867 9863 9858 9854 9850 9846 9842 9838 9834 9831 9827 9823 9820 9817 9813 9811 9808 9805 9801 9798 9793 9790 9786 9783 9780 9777 9774 9771 9768 9765 9762 9759 9757 9754 9752 9749 9746 9744 9742 9740 9738 9737 9735 9733 9732 9731 9730 9729 9728 9727 9726 9724 9722 9720 9719 9719 9719 9718 9717 9716 9715 9714 9713 9712 9711
9941 9937 9933 9929 9925 9920 9915 9910 9906 9901 9896 9891 9887 9883 9878 9874 9870 9866 9862 9857 9853 9849 9844 9840 9836 9832 9828 9825 9821 9817 9814 9810 9807 9804 9801 9798 9795 9792 9789 9785 9782 9778 9775 9772 9769 9766 9762 9759 9757 9754 9751 9749 9746 9743 9741 9738 9736 9734 9732 9730 9728 9727 9725 9724 9722 9721 9721 9720 9719 9718 9716 9714 9712 9711 9711 9711 9710 9709 9708 9707 9707 9706 9705 9704 9703
9923 9919 9915 9911 9907 9902 9898 9894 9889 9885 9880 9876 9872 9868 9863 9860 9856 9852 9848 9844 9840 9836 9831 9827 9823 9819 9815 9812 9808 9804 9801 9798 9795 9792 9789 9786 9783 9780 9777 9773 9770 9767 9764 9760 9758 9755 9751 9748 9746 9743 9740 9738 9735 9733 9730 9728 9726 9724 9722 9720 9719 9717 9715 9714 9713 9712 9711 9711 9710 9708 9706 9704 9703 9702 9702 9702 9702 9701 9700 9699 9699 9699 9698 9697 9696
9906 9901 9897 9893 9889 9884 9880 9876 9873 9868 9864 9860 9856 9852 9849 9845 9841 9837 9833 9829 9826 9822 9818 9814 9810 9807 9803 9799 9795 9792 9789 9786 9783 9780 9777 9773 9770 9768 9765 9762 9759 9756 9752 9749 9747 9744 9741 9738 9735 9732 9730 9727 9725 9722 9720 9718 9716 9714 9712 9710 9709 9707 9706 9704 9703 9703 9702 9702 9700 9699 9697 9696 9695 9694 9694 9694 9694 9694 9692 9691 9691 9691 9690 9690 9689